| time (UTC) | temp F | wind direction | speed knots | gust knots | rain 1hr in | rain 24hr in | rain mn in | humidity % | barometer mb |
| 20260505180028 | 52 | 58 | 2.6 | 11.3 | 0.00 | 0.00 | 0.00 | 72 | 1009.9 |
| 20260505174537 | 53 | 26 | 1.7 | 9.6 | 0.00 | 0.00 | 0.00 | 72 | 1009.8 |
| 20260505173028 | 54 | 56 | 1.7 | 8.7 | 0.00 | 0.00 | 0.00 | 71 | 1010.0 |
| 20260505171528 | 55 | 30 | 1.7 | 13.0 | 0.00 | 0.00 | 0.00 | 70 | 1009.9 |
| 20260505170026 | 55 | 284 | 3.5 | 12.2 | 0.00 | 0.00 | 0.00 | 70 | 1009.9 |
| 20260505164526 | 55 | 318 | 2.6 | 9.6 | 0.00 | 0.00 | 0.00 | 70 | 1009.9 |
| 20260505163025 | 55 | 309 | 4.3 | 11.3 | 0.00 | 0.00 | 0.00 | 70 | 1009.9 |
| 20260505161525 | 56 | 57 | 6.1 | 13.0 | 0.00 | 0.00 | 0.00 | 70 | 1009.9 |
| 20260505153024 | 58 | 358 | 4.3 | 13.9 | 0.00 | 0.00 | 0.00 | 67 | 1009.9 |
| 20260505151524 | 59 | 71 | 3.5 | 12.2 | 0.00 | 0.00 | 0.00 | 66 | 1010.0 |
| 20260505124515 | 59 | 76 | 4.3 | 11.3 | 0.00 | 0.00 | 0.00 | 65 | 1010.5 |
| 20260505123012 | 59 | 58 | 4.3 | 11.3 | 0.00 | 0.00 | 0.00 | 64 | 1010.6 |
| 20260505121512 | 59 | 55 | 3.5 | 8.7 | 0.00 | 0.00 | 0.00 | 67 | 1010.7 |
| 20260505120010 | 58 | 46 | 5.2 | 13.9 | 0.00 | 0.00 | 0.00 | 67 | 1010.7 |
| 20260505114505 | 58 | 80 | 5.2 | 13.0 | 0.00 | 0.00 | 0.00 | 66 | 1010.8 |
| 20260505113002 | 58 | 75 | 5.2 | 15.6 | 0.00 | 0.00 | 0.00 | 69 | 1010.9 |
| 20260505111559 | 56 | 78 | 7.8 | 14.8 | 0.00 | 0.00 | 0.00 | 68 | 1011.0 |
| 20260505110117 | 56 | 61 | 6.1 | 10.4 | 0.00 | 0.00 | 0.00 | 69 | 1011.0 |
| 20260505101601 | 56 | 120 | 5.2 | 12.2 | 0.00 | 0.00 | 0.00 | 70 | 1011.4 |
| 20260505100057 | 55 | 70 | 3.5 | 10.4 | 0.00 | 0.00 | 0.00 | 70 | 1011.4 |
| 20260505094556 | 56 | 45 | 5.2 | 11.3 | 0.00 | 0.00 | 0.00 | 69 | 1011.2 |
| 20260505093053 | 56 | 88 | 3.5 | 12.2 | 0.00 | 0.00 | 0.00 | 70 | 1011.0 |
| 20260505091552 | 56 | 100 | 5.2 | 12.2 | 0.00 | 0.00 | 0.00 | 70 | 1011.0 |
| 20260505090048 | 56 | 57 | 4.3 | 12.2 | 0.00 | 0.00 | 0.00 | 70 | 1011.3 |
| 20260505084546 | 55 | 51 | 2.6 | 13.0 | 0.00 | 0.00 | 0.00 | 70 | 1011.2 |
| 20260505083046 | 55 | 32 | 5.2 | 11.3 | 0.00 | 0.00 | 0.00 | 73 | 1011.4 |
| 20260505081551 | 53 | 36 | 2.6 | 11.3 | 0.00 | 0.00 | 0.00 | 76 | 1011.6 |
| 20260505080048 | 56 | 54 | 5.2 | 12.2 | 0.00 | 0.00 | 0.00 | 71 | 1011.5 |
| 20260505074542 | 56 | 66 | 5.2 | 11.3 | 0.00 | 0.00 | 0.00 | 73 | 1011.7 |
| 20260505073047 | 55 | 82 | 7.0 | 10.4 | 0.00 | 0.00 | 0.00 | 73 | 1011.9 |
| 20260505071549 | 54 | 54 | 4.3 | 8.7 | 0.00 | 0.00 | 0.00 | 75 | 1011.8 |
| 20260505070035 | 53 | 53 | 4.3 | 10.4 | 0.00 | 0.00 | 0.00 | 74 | 1011.8 |
| 20260505064531 | 53 | 42 | 2.6 | 9.6 | 0.00 | 0.00 | 0.00 | 76 | 1011.7 |
| 20260505063027 | 51 | 49 | 2.6 | 8.7 | 0.00 | 0.00 | 0.00 | 80 | 1011.7 |
| 20260505061525 | 50 | 78 | 3.5 | 10.4 | 0.00 | 0.00 | 0.00 | 81 | 1011.8 |
| 20260505060026 | 49 | 41 | 1.7 | 7.8 | 0.00 | 0.00 | 0.00 | 81 | 1011.9 |
| 20260505054532 | 49 | 74 | 2.6 | 8.7 | 0.00 | 0.00 | 0.00 | 82 | 1011.7 |
| 20260505053030 | 49 | 72 | 2.6 | 7.8 | 0.00 | 0.00 | 0.00 | 83 | 1011.7 |
| 20260505051533 | 49 | 83 | 5.2 | 9.6 | 0.00 | 0.00 | 0.00 | 84 | 1011.5 |
| 20260505041515 | 49 | 69 | 2.6 | 6.1 | 0.00 | 0.00 | 0.00 | 87 | 1011.6 |
| 20260505040010 | 49 | 46 | 7.0 | 10.4 | 0.00 | 0.00 | 0.00 | 87 | 1011.4 |
| 20260505034508 | 49 | 59 | 1.7 | 6.1 | 0.00 | 0.00 | 0.00 | 87 | 1011.5 |
| 20260505033010 | 49 | 88 | 1.7 | 7.0 | 0.00 | 0.00 | 0.00 | 87 | 1011.5 |
| 20260505031507 | 49 | 84 | 2.6 | 7.8 | 0.00 | 0.00 | 0.00 | 87 | 1011.3 |
| 20260505030018 | 49 | 47 | 3.5 | 7.0 | 0.00 | 0.00 | 0.00 | 87 | 1011.4 |
| 20260505024504 | 49 | 69 | 1.7 | 7.8 | 0.00 | 0.00 | 0.00 | 87 | 1011.5 |
| 20260505023003 | 49 | 74 | 2.6 | 9.6 | 0.00 | 0.00 | 0.00 | 87 | 1011.7 |
| 20260505021502 | 49 | 41 | 3.5 | 8.7 | 0.00 | 0.00 | 0.00 | 87 | 1011.8 |
| 20260505020105 | 49 | 65 | 2.6 | 7.0 | 0.00 | 0.00 | 0.00 | 87 | 1011.8 |
| 20260505014601 | 49 | 65 | 2.6 | 6.1 | 0.00 | 0.01 | 0.00 | 87 | 1011.9 |
| 20260505013058 | 49 | 99 | 1.7 | 6.1 | 0.00 | 0.01 | 0.00 | 87 | 1011.9 |
| 20260505011557 | 49 | 89 | 2.6 | 7.8 | 0.00 | 0.01 | 0.00 | 87 | 1012.2 |
| 20260505004554 | 49 | 80 | 2.6 | 8.7 | 0.00 | 0.01 | 0.00 | 87 | 1012.4 |
| 20260505003053 | 49 | 84 | 2.6 | 8.7 | 0.00 | 0.01 | 0.00 | 87 | 1012.4 |
| 20260505001551 | 50 | 24 | 4.3 | 8.7 | 0.00 | 0.01 | 0.00 | 87 | 1012.5 |
| 20260505000050 | 50 | 88 | 2.6 | 5.2 | 0.00 | 0.01 | 0.00 | 87 | 1012.7 |
| 20260504234547 | 50 | 70 | 3.5 | 7.8 | 0.00 | 0.01 | 0.00 | 87 | 1012.8 |
| 20260504233049 | 50 | 63 | 2.6 | 5.2 | 0.00 | 0.01 | 0.00 | 87 | 1012.7 |
| 20260504231545 | 50 | 86 | 3.5 | 6.1 | 0.00 | 0.01 | 0.00 | 87 | 1012.9 |
| 20260504230044 | 50 | 50 | 3.5 | 9.6 | 0.00 | 0.01 | 0.00 | 87 | 1012.9 |
| 20260504224542 | 50 | 82 | 1.7 | 6.1 | 0.00 | 0.01 | 0.00 | 87 | 1013.0 |
| 20260504223041 | 50 | 67 | 3.5 | 7.0 | 0.00 | 0.01 | 0.00 | 86 | 1013.1 |
| 20260504221540 | 50 | 73 | 4.3 | 8.7 | 0.00 | 0.01 | 0.00 | 86 | 1013.3 |
| 20260504220036 | 51 | 92 | 6.1 | 12.2 | 0.00 | 0.01 | 0.00 | 86 | 1013.3 |
| 20260504214539 | 51 | 71 | 3.5 | 7.8 | 0.00 | 0.01 | 0.01 | 86 | 1013.4 |
| 20260504213031 | 51 | 55 | 3.5 | 8.7 | 0.00 | 0.01 | 0.01 | 86 | 1013.3 |
| 20260504211530 | 51 | 84 | 3.5 | 8.7 | 0.00 | 0.01 | 0.01 | 86 | 1013.3 |
| 20260504210028 | 51 | 38 | 5.2 | 11.3 | 0.00 | 0.01 | 0.01 | 86 | 1013.3 |
| 20260504204528 | 52 | 88 | 4.3 | 8.7 | 0.00 | 0.01 | 0.01 | 86 | 1013.3 |
| 20260504203025 | 52 | 330 | 0.9 | 6.1 | 0.00 | 0.01 | 0.01 | 86 | 1013.3 |
| 20260504201524 | 52 | 7 | 0.0 | 5.2 | 0.00 | 0.01 | 0.01 | 87 | 1013.3 |
| 20260504200035 | 53 | 31 | 1.7 | 5.2 | 0.00 | 0.01 | 0.01 | 87 | 1013.1 |
| 20260504194522 | 52 | 3 | 0.9 | 4.3 | 0.00 | 0.01 | 0.01 | 87 | 1013.0 |
| 20260504193021 | 53 | 23 | 0.9 | 4.3 | 0.00 | 0.01 | 0.01 | 86 | 1012.9 |
| 20260504191535 | 53 | 344 | 1.7 | 8.7 | 0.00 | 0.01 | 0.01 | 86 | 1012.9 |
| 20260504190018 | 53 | 331 | 0.9 | 5.2 | 0.00 | 0.01 | 0.01 | 86 | 1012.8 |
| 20260504184518 | 53 | 319 | 1.7 | 7.8 | 0.00 | 0.01 | 0.01 | 86 | 1012.8 |
| 20260504183034 | 53 | 36 | 1.7 | 7.8 | 0.00 | 0.01 | 0.01 | 86 | 1012.7 |
| 20260504181523 | 54 | 334 | 1.7 | 7.8 | 0.00 | 0.01 | 0.01 | 86 | 1012.7 |